Regional Weather Roundup
Issued by NWS Kansas City/Pleasant Hill, MO

Home | Current Version | Previous Version | Text Only | Print | Product List | Glossary On
Versions: 1 2 3 4 5 6 7 8 9 10 11 12 13 14 15 16 17 18 19 20 21 22 23 24 25 26 27 28 29 30 31 32 33 34 35 36 37 38 39 40 41 42 43 44 45 46 47 48 49 50
000
ASUS43 KEAX 200510
RWREAX

WEATHER ROUNDUP FOR EASTERN KANSAS AND NORTHWEST MISSOURI
NATIONAL WEATHER SERVICE KANSAS CITY/PLEASANT HILL MO
1200 AM CDT FRI OCT 20 2017

KSZ040-057-103>105-MOZ028-029-037-043-200600-
...KANSAS CITY METROPOLITAN AREA...

CITY           SKY/WX    TMP DP  RH WIND       PRES   REMARKS
K.C. INTL      FAIR      57  51  80 S9        30.08S
K.C. DOWNTOWN  FAIR      61  53  75 SW7       30.08R
LEES SUMMIT    FAIR      61  54  77 S10       30.09S
OLATHE - IXD   FAIR      56  52  86 S7        30.09S
OLATHE - OJC   FAIR      57  53  86 S7        30.09S
LAWRENCE       FAIR      56  52  86 E7        30.08S

$$

MOZ001>008-011>017-020>025-030>033-038>040-044>046-053-054-200600-
...NORTHERN AND CENTRAL MISSOURI...

CITY           SKY/WX    TMP DP  RH WIND       PRES   REMARKS
ST. JOSEPH     FAIR      62  55  77 S8        30.06S
MOSBY          FAIR      54  52  94 SE3       30.08S
WARRENSBURG    FAIR      55  52  88 S5        30.10S
WHITEMAN AFB   CLEAR     57  51  82 S5        30.07S
CLINTON        FAIR      52  48  87 MISG      30.12S
SEDALIA        FAIR      57  53  86 S10       30.12S
WARSAW         NOT AVBL
CHILLICOTHE      N/A     56  53  90 CALM      30.10R
KIRKSVILLE     FAIR      58  52  80 S7        30.10F

$$

MOZ041-047>049-056>058-063>065-088>090-097-200600-
...EASTERN AND SOUTHERN MISSOURI...

CITY           SKY/WX    TMP DP  RH WIND       PRES   REMARKS
ST. LOUIS INTL FAIR      64  50  60 S7        30.16S
SPIRIT OF STL  FAIR      50  50 100 CALM      30.14S FOG
COLUMBIA       FAIR      58  51  78 S6        30.13S
JEFFERSON CITY FAIR      53  50  89 SE3       30.13S
ROLLA          FAIR      63  48  58 S14       30.16S
OSAGE BEACH    FAIR      59  50  72 S7        30.15S
SPRINGFIELD    FAIR      61  49  64 S12       30.14S
BRANSON        FAIR      63  50  63 S8        30.17F
JOPLIN         FAIR      59  53  80 S10       30.13S
WEST PLAINS    FAIR      60  50  69 S3        30.21S

$$

IAZ060-094-KSZ022-034>040-054-083-096-NEZ052-066-093-200600-
...KANSAS...SOUTHEAST NEBRASKA AND IOWA...

CITY           SKY/WX    TMP DP  RH WIND       PRES   REMARKS
TOPEKA         FAIR      61  54  77 S6        30.06S
MANHATTAN      FAIR      63  52  67 S12       30.04R
EMPORIA        FAIR      59  52  77 S15       30.07S
CHANUTE        FAIR      55  51  86 S7        30.11S
WICHITA        FAIR      61  54  77 S16       30.06S
OMAHA          FAIR      62  51  67 S12       29.98S
LINCOLN        FAIR      63  48  58 S15       29.97F
FALLS CITY     FAIR      63  52  67 S10       30.03R
LAMONI         FAIR      61  52  72 S9        30.06S
DES MOINES     FAIR      60  52  74 S10       30.02S

$$




USA.gov is the U.S. government's official web portal to all federal, state and local government web resources and services.